AKST,Max TemperatureF,Mean TemperatureF,Min TemperatureF,Max Dew PointF,MeanDew PointF,Min DewpointF,Max Humidity, Mean Humidity, Min Humidity, Max Sea Level PressureIn, Mean Sea Level PressureIn, Min Sea Level PressureIn, Max VisibilityMiles, Mean VisibilityMiles, Min VisibilityMiles, Max Wind SpeedMPH, Mean Wind SpeedMPH, Max Gust SpeedMPH,PrecipitationIn, CloudCover, Events, WindDirDegrees
2011-12-1,39,36,33,36,34,32,100,93,82,30.29,29.97,29.63,10,8,1,22,12,41,0.88,7,Rain-Snow,71
2011-12-2,42,38,35,39,35,34,96,89,86,30.31,30.23,30.15,10,10,8,18,12,36,0.00,8,Rain,99
2011-12-3,39,36,33,37,35,34,100,97,86,30.59,30.50,30.27,10,7,2,14,8,,0.00,8,,294
2011-12-4,41,39,37,38,37,36,93,89,86,30.56,30.50,30.44,10,10,10,13,10,24,0.00,8,Rain,101
2011-12-5,42,37,32,40,33,17,100,89,52,30.29,29.91,29.69,10,9,3,15,7,31,0.38,5,Rain,317
2011-12-6,30,24,17,23,15,11,77,69,56,30.65,30.52,30.31,10,10,10,16,9,24,0.00,1,,302
2011-12-7,21,18,14,18,14,9,93,82,68,30.63,30.51,30.37,10,6,1,17,13,,0.01,5,Snow,291
2011-12-8,39,29,19,37,31,18,93,91,85,30.35,30.12,29.93,10,7,2,24,12,43,0.17,8,Rain-Snow,92
2011-12-9,39,36,33,37,35,31,100,96,89,29.93,29.88,29.84,10,8,1,17,12,38,0.23,7,Rain,336
2011-12-10,35,30,24,30,26,22,96,86,70,30.22,30.09,29.90,10,10,10,16,10,22,0.00,3,,310
2011-12-11,37,30,24,34,28,21,100,89,78,30.21,30.03,29.70,10,8,1,22,12,40,0.42,8,Rain-Snow,57
2011-12-12,37,35,33,36,33,32,100,90,79,29.81,29.67,29.57,10,8,2,22,16,39,0.34,7,Rain-Snow,108
2011-12-13,36,28,21,32,25,18,96,89,80,30.01,29.87,29.80,10,10,10,16,10,29,0.00,5,,299
2011-12-14,35,28,21,31,22,18,100,90,80,30.03,30.01,29.99,10,5,1,16,12,,0.01,8,Snow,295
2011-12-15,37,34,32,34,31,27,100,88,72,30.00,29.86,29.72,10,6,0,23,12,38,0.17,8,Fog-Rain-Snow,94
2011-12-16,39,38,36,36,33,30,93,85,70,29.95,29.82,29.74,10,10,5,21,11,37,0.11,7,Rain,86
2011-12-17,37,32,28,34,30,25,100,87,73,30.11,29.96,29.85,10,10,10,15,8,,0.00,7,,303
2011-12-18,37,32,27,36,32,25,96,89,81,30.12,29.82,29.52,10,8,2,23,13,40,0.49,7,Rain-Snow,95
2011-12-19,39,34,30,36,33,26,93,88,75,29.69,29.58,29.45,10,10,7,18,12,28,0.00,6,Rain,42
2011-12-20,33,27,21,28,23,19,96,88,78,30.27,30.11,29.72,10,10,10,15,8,22,0.00,3,,294
2011-12-21,37,36,35,34,33,30,93,86,75,30.23,29.99,29.70,10,9,4,22,16,39,0.34,8,Rain,95
2011-12-22,43,39,35,38,35,33,93,85,76,29.67,29.39,29.13,10,7,2,23,16,45,1.54,8,Rain-Snow,86
2011-12-23,39,36,33,36,33,25,100,88,60,29.71,29.54,29.17,10,7,2,22,16,48,0.68,8,Rain-Snow,99
2011-12-24,39,36,33,36,34,32,100,93,86,29.74,29.53,29.36,10,8,2,23,14,38,0.97,8,Rain-Snow,98
2011-12-25,39,36,33,37,31,22,97,82,64,29.73,29.49,29.38,10,10,10,17,11,32,0.02,5,Rain,95
2011-12-26,35,30,26,32,27,21,100,89,61,29.72,29.23,29.00,10,3,0,22,8,37,0.64,8,Fog-Rain-Snow,321
2011-12-27,35,32,28,32,29,25,96,87,81,29.51,29.39,29.17,10,5,0,24,17,41,0.10,8,Fog-Snow,110
2011-12-28,28,27,26,25,25,24,96,91,85,29.14,28.97,28.90,10,4,1,16,12,,0.00,8,Snow,304
2011-12-29,32,29,26,28,26,23,100,89,75,29.50,29.38,29.16,10,6,0,20,9,36,0.08,7,Fog-Snow,91
2011-12-30,30,26,21,27,23,19,100,88,69,29.73,29.43,29.35,10,5,0,16,6,30,0.12,7,Fog-Snow,87
2011-12-31,32,26,21,27,22,17,93,84,72,30.05,29.97,29.80,10,9,2,15,11,24,0.00,7,Snow,260